Probability
6 10 23 65 71 42 0 0 0 0 0 0 3 3 6 6 3 6 19 16 16 23 42 74 84 77 81 84 84 87 84 84 81 84 84 84 87 90 84 87 90 90 81 84 87 81 77 74 74
16 39 58 68 48 3 3 0 3 0 0 0 3 6 3 13 6 3 19 19 23 26 32 58 84 74 77 81 81 81 84 84 87 87 81 81 84 87 87 87 84 84 77 81 74 74 71 68 65
29 52 55 48 13 0 3 3 3 0 0 3 3 6 6 13 10 16 19 19 26 29 45 74 81 74 77 77 81 81 84 81 84 84 81 77 84 87 87 81 81 77 71 71 58 65 68 58 58
61 71 52 26 0 0 0 3 3 3 3 3 3 3 6 10 6 19 16 26 26 35 48 74 84 77 77 81 84 77 81 71 77 81 74 77 77 81 74 81 71 74 68 68 71 65 58 45 48
61 55 39 3 0 0 0 0 0 0 0 3 6 16 13 6 13 19 23 23 23 32 29 58 84 81 77 74 77 77 74 71 74 77 68 71 71 71 71 68 68 65 65 65 65 58 48 39 29
42 39 6 0 0 0 0 0 0 0 0 0 3 13 10 10 16 19 23 23 26 32 35 61 84 81 71 77 77 74 77 68 68 71 68 71 65 58 65 68 61 58 61 58 48 39 39 45 39
35 13 3 0 0 0 0 0 0 0 0 0 0 16 13 10 19 19 23 29 26 26 29 45 58 68 74 74 74 77 71 68 65 71 68 68 65 65 61 58 61 61 52 52 45 29 35 39 35
16 13 0 0 0 0 0 0 0 0 0 0 3 10 16 19 19 19 19 29 32 42 29 32 32 42 52 58 71 74 65 74 68 65 61 65 68 61 61 61 65 45 42 42 29 23 35 39 39
3 6 0 0 0 0 0 0 0 0 6 3 10 10 16 13 16 13 16 23 29 29 29 29 35 45 35 32 58 68 61 68 65 68 68 71 65 52 61 61 55 45 42 42 42 45 48 52 52
0 3 0 0 0 0 0 0 0 0 6 10 10 13 13 16 16 19 13 16 19 29 29 32 32 35 32 26 52 71 39 77 68 81 84 84 84 71 42 68 68 65 65 58 61 65 52 48 39
3 0 0 0 0 0 0 3 3 6 6 10 10 13 16 16 19 19 13 16 16 26 26 26 29 29 35 48 42 55 65 74 77 71 77 90 77 68 58 58 68 71 55 52 55 52 52 39 55
0 0 0 0 0 0 0 3 3 3 3 13 10 16 13 19 13 16 16 16 16 19 23 23 29 48 61 61 58 65 71 77 68 81 84 84 84 84 74 77 77 71 65 77 68 71 71 71 61
0 0 0 0 0 3 3 0 0 3 13 10 16 13 13 16 16 19 23 19 26 23 23 45 71 74 81 77 74 58 77 77 68 84 84 87 81 87 84 87 87 84 90 81 84 87 74 71 68
0 0 0 0 0 0 0 0 0 3 10 10 19 23 26 26 19 29 29 29 39 39 48 65 65 71 84 77 77 74 74 81 74 77 71 81 81 81 84 84 87 87 87 87 97 87 81 71 74
0 0 0 0 0 0 0 0 0 3 10 10 19 19 23 26 29 26 29 29 39 61 65 61 61 68 74 74 68 48 68 58 71 84 77 81 81 81 81 81 81 74 81 84 77 77 74 71 74
0 0 0 0 0 0 3 0 0 0 6 13 26 23 23 29 26 29 35 42 55 68 74 71 39 58 74 84 87 58 48 65 74 84 81 68 74 81 77 77 71 74 74 71 77 74 77 77 68
0 0 0 0 0 0 3 3 3 6 10 13 16 23 26 29 26 32 26 45 61 81 84 81 74 68 65 68 81 84 74 74 84 81 84 77 71 68 71 74 74 77 71 71 65 74 81 81 74
0 0 0 0 0 3 3 3 3 6 13 13 23 26 29 29 29 35 32 42 71 84 84 84 81 84 81 71 81 81 81 77 84 87 87 84 81 68 74 77 77 77 81 74 74 81 84 74 77
0 0 0 0 0 0 3 6 6 6 6 19 35 39 39 35 35 45 42 42 58 77 81 90 84 87 90 81 81 77 84 84 84 87 87 84 81 74 84 77 84 87 84 77 74 74 71 74 77
0 0 0 0 0 0 0 3 10 3 3 6 42 52 45 55 52 52 52 48 61 77 87 84 87 94 94 84 84 87 90 90 90 87 94 84 77 81 61 87 87 81 87 84 81 71 71 68 68
0 0 0 0 0 0 0 0 0 3 3 10 23 35 45 48 58 65 65 58 61 65 77 77 84 94 94 94 87 81 87 87 81 87 84 81 74 68 81 81 84 87 81 74 74 77 74 71 74
0 0 0 0 0 0 0 0 0 3 6 10 16 23 32 45 52 68 61 61 61 58 65 84 90 94 97 94 90 87 84 77 81 84 84 84 77 71 71 71 74 81 81 81 74 74 71 71 74
0 0 0 0 0 0 0 0 0 3 10 10 10 26 29 45 45 58 65 61 65 65 68 77 87 94 90 90 90 84 81 81 81 84 84 87 77 77 71 71 74 74 81 81 74 77 74 71 68
0 0 0 0 0 0 0 0 3 0 3 10 10 23 32 35 45 58 65 71 68 65 65 74 94 94 87 87 87 81 81 77 77 81 81 81 81 77 74 74 68 71 74 74 77 74 77 77 74
0 0 0 0 0 0 0 0 3 3 0 10 6 23 23 35 39 52 61 68 65 61 65 68 90 90 90 81 77 74 81 87 87 87 77 77 71 68 71 71 74 74 74 74 71 74 71 71 77
0 0 0 0 0 0 0 0 0 0 0 3 10 16 23 26 29 45 58 65 71 61 65 68 87 90 90 87 84 77 77 77 74 81 81 77 74 74 71 74 74 77 71 71 74 71 71 68 71
0 0 0 0 0 0 0 0 0 0 0 3 6 16 26 29 39 45 52 68 65 61 71 71 84 90 90 87 87 84 77 77 77 81 81 77 81 74 71 71 74 74 74 71 74 71 77 71 68
0 0 0 0 0 0 0 0 0 0 6 10 16 19 23 29 35 39 48 52 61 58 74 77 81 84 84 81 84 74 81 74 81 74 74 74 74 74 74 74 71 74 74 77 77 77 74 74 74
0 0 0 0 0 0 0 3 3 3 10 10 19 23 29 32 32 29 35 42 42 52 61 74 81 84 84 84 84 81 77 84 81 74 68 68 71 71 68 71 71 65 68 71 74 65 68 65 65
0 0 0 0 0 0 0 0 3 10 10 16 19 26 29 29 32 32 42 48 48 48 55 68 71 71 74 74 81 81 81 77 71 68 65 65 65 68 68 68 71 68 68 68 65 65 61 65 65
Height
5897 5897 5897 5897 5897 5896 5896 5896 5896 5895 5895 5894 5894 5893 5893 5893 5893 5895 5892 5890 5890 5890 5891 5892 5893 5893 5894 5895 5895 5896 5897 5897 5897 5898 5898 5898 5899 5899 5900 5901 5901 5902 5902 5903 5903 5904 5904 5905 5905
5900 5900 5899 5898 5898 5899 5899 5898 5897 5897 5896 5895 5895 5895 5894 5893 5894 5893 5892 5892 5892 5892 5893 5893 5894 5895 5895 5896 5897 5897 5898 5898 5899 5899 5900 5900 5900 5901 5902 5902 5903 5903 5904 5904 5904 5905 5905 5906 5906
5902 5901 5900 5900 5902 5902 5901 5900 5899 5898 5897 5897 5897 5896 5896 5895 5895 5894 5894 5893 5893 5894 5894 5894 5895 5896 5896 5897 5898 5898 5899 5900 5900 5900 5901 5901 5901 5902 5903 5903 5904 5905 5905 5905 5906 5906 5907 5907 5907
5904 5903 5903 5905 5904 5904 5902 5902 5901 5900 5899 5898 5898 5897 5896 5896 5896 5895 5895 5894 5895 5895 5895 5895 5896 5897 5898 5898 5899 5899 5900 5901 5901 5901 5902 5902 5903 5903 5904 5905 5905 5906 5906 5907 5907 5907 5908 5908 5908
5904 5905 5907 5908 5907 5906 5905 5904 5902 5901 5900 5899 5899 5898 5897 5897 5897 5896 5896 5896 5896 5896 5896 5896 5897 5898 5899 5899 5900 5900 5901 5902 5902 5903 5903 5904 5904 5905 5905 5906 5906 5907 5907 5908 5908 5908 5908 5909 5909
5906 5909 5910 5909 5909 5908 5906 5905 5904 5903 5901 5901 5900 5900 5899 5899 5898 5897 5897 5897 5897 5896 5896 5897 5897 5898 5899 5900 5901 5901 5902 5903 5903 5904 5904 5905 5905 5906 5906 5907 5907 5908 5908 5909 5909 5909 5909 5909 5909
5910 5910 5912 5912 5911 5909 5908 5907 5905 5904 5903 5902 5902 5901 5900 5900 5899 5898 5898 5898 5898 5898 5898 5898 5898 5899 5900 5901 5901 5902 5903 5904 5904 5905 5905 5906 5906 5907 5907 5908 5908 5908 5909 5909 5909 5910 5910 5910 5910
5912 5913 5914 5914 5913 5911 5910 5908 5907 5906 5905 5904 5903 5902 5902 5901 5900 5900 5899 5899 5899 5899 5899 5899 5900 5900 5901 5901 5902 5903 5904 5904 5905 5906 5906 5907 5907 5908 5908 5908 5909 5909 5909 5909 5910 5910 5910 5910 5911
5915 5917 5916 5916 5915 5914 5912 5910 5909 5907 5906 5905 5904 5903 5903 5902 5901 5901 5901 5901 5900 5900 5900 5901 5901 5901 5901 5902 5903 5904 5904 5905 5906 5906 5907 5908 5908 5909 5909 5909 5909 5910 5910 5910 5910 5910 5910 5911 5911
5918 5919 5918 5917 5917 5915 5914 5912 5911 5909 5907 5906 5905 5905 5904 5903 5903 5902 5902 5902 5902 5901 5901 5901 5902 5902 5902 5903 5903 5904 5905 5905 5906 5907 5908 5908 5909 5910 5910 5910 5910 5910 5910 5910 5910 5911 5911 5911 5912
5921 5920 5920 5919 5918 5916 5915 5914 5912 5911 5910 5908 5907 5907 5905 5904 5904 5904 5904 5903 5903 5903 5903 5903 5903 5903 5902 5903 5904 5905 5905 5906 5907 5908 5908 5909 5910 5910 5910 5910 5911 5911 5911 5911 5911 5911 5912 5912 5912
5922 5922 5921 5920 5919 5918 5917 5916 5915 5913 5912 5911 5910 5908 5907 5906 5906 5905 5905 5905 5905 5904 5904 5904 5903 5903 5903 5904 5905 5905 5906 5907 5907 5908 5909 5910 5910 5911 5911 5911 5911 5912 5911 5911 5912 5912 5912 5912 5912
5923 5923 5922 5922 5921 5920 5919 5918 5916 5915 5914 5912 5911 5910 5909 5908 5908 5907 5907 5906 5906 5906 5905 5905 5905 5905 5904 5905 5906 5906 5907 5907 5907 5909 5910 5910 5911 5911 5911 5911 5912 5912 5912 5912 5912 5912 5912 5912 5912
5923 5923 5923 5922 5922 5921 5920 5919 5918 5916 5915 5914 5913 5912 5911 5910 5909 5909 5908 5908 5908 5907 5907 5907 5906 5906 5906 5906 5906 5907 5907 5908 5909 5910 5910 5911 5912 5912 5912 5912 5912 5912 5912 5912 5912 5912 5912 5912 5912
5923 5923 5924 5923 5923 5923 5922 5921 5918 5917 5917 5916 5914 5913 5913 5912 5911 5910 5910 5909 5909 5909 5908 5908 5908 5907 5907 5907 5907 5908 5908 5909 5910 5910 5911 5911 5912 5912 5912 5912 5912 5913 5913 5913 5912 5912 5912 5912 5912
5924 5924 5925 5925 5925 5923 5924 5922 5920 5919 5919 5917 5916 5915 5914 5913 5913 5912 5911 5911 5910 5910 5909 5909 5909 5909 5909 5908 5909 5909 5909 5910 5910 5911 5911 5912 5912 5913 5913 5913 5913 5913 5913 5913 5913 5912 5912 5912 5912
5925 5926 5926 5926 5926 5925 5924 5923 5922 5920 5920 5918 5917 5916 5915 5914 5914 5913 5912 5912 5911 5911 5910 5910 5910 5910 5910 5909 5909 5910 5910 5910 5911 5911 5911 5912 5912 5913 5913 5913 5913 5913 5913 5913 5912 5912 5912 5911 5911
5926 5927 5928 5927 5927 5926 5926 5925 5922 5921 5920 5919 5918 5917 5916 5915 5914 5914 5913 5913 5912 5912 5911 5911 5910 5910 5910 5910 5910 5910 5910 5911 5911 5911 5912 5912 5912 5913 5913 5913 5913 5913 5913 5912 5912 5912 5911 5911 5910
5926 5928 5928 5928 5927 5926 5925 5925 5924 5922 5921 5919 5918 5917 5916 5915 5914 5914 5914 5913 5913 5912 5912 5912 5911 5911 5911 5911 5910 5910 5911 5911 5911 5911 5912 5912 5912 5913 5913 5913 5913 5913 5912 5912 5911 5911 5910 5910 5909
5927 5928 5928 5927 5927 5926 5925 5923 5923 5923 5921 5920 5918 5917 5916 5915 5914 5914 5913 5913 5913 5912 5912 5912 5911 5911 5911 5911 5911 5911 5911 5911 5911 5911 5912 5912 5912 5913 5913 5913 5913 5912 5912 5911 5911 5910 5909 5909 5908
5926 5927 5926 5925 5926 5925 5925 5923 5922 5921 5920 5919 5917 5916 5915 5915 5914 5914 5913 5913 5913 5912 5912 5912 5912 5911 5911 5911 5911 5910 5911 5911 5911 5911 5911 5912 5912 5912 5913 5913 5913 5912 5911 5911 5910 5909 5908 5907 5907
5924 5925 5924 5924 5924 5924 5925 5923 5922 5920 5919 5918 5916 5915 5914 5914 5913 5913 5913 5913 5912 5912 5911 5911 5911 5911 5911 5911 5910 5910 5910 5910 5910 5911 5911 5911 5912 5912 5912 5912 5911 5911 5910 5909 5909 5908 5907 5906 5905
5921 5922 5922 5922 5922 5923 5923 5922 5920 5918 5916 5916 5915 5915 5914 5913 5913 5912 5912 5912 5911 5911 5911 5911 5910 5910 5910 5910 5910 5909 5910 5909 5909 5910 5910 5910 5911 5911 5911 5910 5910 5910 5909 5908 5907 5907 5906 5905 5904
5918 5919 5920 5920 5921 5921 5921 5922 5919 5916 5914 5915 5914 5914 5913 5912 5911 5911 5911 5911 5910 5910 5910 5909 5909 5909 5909 5909 5908 5908 5908 5908 5908 5908 5908 5908 5909 5909 5909 5909 5908 5907 5907 5906 5905 5905 5904 5903 5902
5915 5917 5919 5919 5919 5919 5919 5919 5918 5916 5915 5915 5914 5912 5911 5910 5909 5909 5909 5909 5909 5908 5908 5908 5907 5907 5907 5907 5907 5906 5906 5906 5906 5906 5906 5906 5906 5907 5907 5907 5906 5905 5904 5904 5903 5903 5902 5901 5900
5913 5916 5917 5918 5918 5917 5916 5917 5917 5914 5913 5912 5911 5910 5909 5908 5907 5906 5906 5906 5906 5906 5906 5905 5905 5905 5904 5904 5904 5904 5903 5902 5903 5903 5903 5903 5903 5904 5904 5904 5903 5903 5902 5901 5901 5900 5899 5898 5897
5910 5912 5915 5916 5915 5915 5915 5914 5912 5911 5909 5909 5908 5907 5906 5906 5905 5904 5904 5903 5902 5902 5903 5903 5902 5902 5902 5901 5901 5901 5901 5900 5900 5900 5900 5900 5900 5900 5900 5900 5900 5899 5899 5898 5897 5896 5895 5894 5893
5906 5907 5910 5911 5911 5911 5911 5910 5909 5905 5906 5905 5905 5904 5903 5903 5902 5902 5901 5901 5900 5899 5899 5900 5900 5899 5898 5898 5898 5898 5898 5898 5897 5897 5897 5897 5896 5896 5896 5896 5896 5895 5895 5894 5893 5893 5892 5891 5890
5902 5904 5905 5906 5907 5909 5908 5908 5905 5904 5903 5902 5901 5900 5900 5900 5899 5898 5898 5897 5897 5897 5897 5896 5896 5895 5895 5895 5894 5894 5894 5894 5894 5894 5893 5893 5892 5892 5892 5892 5891 5891 5890 5889 5889 5888 5887 5886 5885
5898 5899 5901 5903 5903 5903 5903 5905 5901 5900 5898 5897 5897 5897 5896 5896 5894 5894 5894 5894 5893 5893 5892 5892 5891 5891 5891 5890 5890 5889 5889 5889 5889 5889 5889 5888 5888 5887 5887 5887 5886 5885 5885 5884 5883 5882 5882 5881 5880
Wind_Speed
15 14 13 12 12 11 7 6 5 4 3 3 2 2 2 2 2 4 4 6 5 6 6 6 7 7 7 8 9 8 8 8 8 8 7 7 7 8 7 7 6 7 7 7 7 7 6 6 7
14 12 13 13 13 8 7 7 5 4 4 3 3 2 1 1 1 3 4 4 4 5 5 5 6 6 6 6 8 7 7 7 7 7 6 6 7 7 7 6 6 6 6 6 6 6 5 6 6
14 12 14 14 10 7 7 7 7 5 5 4 3 2 2 2 2 2 3 2 3 4 5 5 5 5 5 6 7 7 6 6 5 5 5 6 6 6 6 5 5 6 6 6 5 5 5 5 5
13 15 16 13 9 7 7 7 8 7 6 5 4 3 2 2 1 1 1 2 2 4 4 4 5 5 5 5 6 7 6 5 5 4 4 5 5 5 6 5 5 5 5 4 4 4 4 4 4
16 17 15 10 8 7 7 7 7 7 6 5 4 4 3 2 2 1 1 1 1 3 3 4 5 4 4 4 6 6 6 5 4 4 4 5 5 5 5 5 5 5 4 4 3 3 3 3 2
17 16 11 8 8 7 7 7 8 7 6 5 5 4 3 3 2 1 1 1 1 2 3 3 4 4 4 5 6 6 6 5 4 4 4 4 5 5 5 5 4 4 3 3 3 3 2 2 2
14 13 9 7 7 7 7 7 7 7 7 6 5 5 4 3 3 2 2 2 2 2 2 3 3 4 4 4 5 5 5 4 3 3 3 4 4 4 3 3 3 3 3 2 2 2 2 2 2
11 11 7 7 7 7 8 8 7 7 7 7 6 5 4 3 3 3 2 2 2 3 2 2 3 4 4 4 5 5 4 4 3 3 3 3 3 3 2 2 2 2 2 2 2 2 2 2 2
11 9 6 5 6 8 9 9 8 8 8 8 8 6 5 4 3 3 2 2 2 2 2 2 3 3 4 4 4 4 4 3 3 3 3 3 3 2 1 1 2 2 1 1 2 2 2 2 2
8 6 4 5 5 6 8 8 8 8 10 9 9 7 7 5 4 4 3 2 2 1 2 2 2 3 3 4 4 3 3 4 3 3 3 3 3 2 2 1 2 2 1 1 2 2 2 2 2
4 3 4 4 4 5 8 9 9 9 10 10 9 8 8 7 5 4 4 3 3 3 2 2 2 2 3 3 3 3 3 3 3 3 4 3 3 2 1 1 1 2 2 1 2 3 2 2 2
3 3 4 5 5 6 7 8 9 9 9 9 8 8 8 8 7 6 5 5 5 4 4 4 4 2 2 2 1 1 2 4 4 4 4 3 2 1 1 1 1 1 1 1 2 2 2 2 2
3 4 5 5 5 6 7 7 7 8 9 8 8 8 8 8 7 7 6 6 6 5 5 4 5 3 2 2 1 1 1 2 3 3 3 2 1 0 1 1 1 1 1 2 2 2 1 1 1
4 2 4 4 5 6 6 6 6 7 9 9 8 8 9 8 8 7 7 6 6 6 6 6 5 4 4 3 2 1 2 2 2 2 2 1 0 1 2 2 2 1 1 2 1 1 1 1 1
2 2 4 5 6 6 5 6 7 8 8 8 7 7 8 8 8 8 7 6 6 6 6 5 5 5 4 3 2 1 1 1 1 1 1 1 0 1 2 3 2 2 2 2 2 1 1 1 2
1 3 4 5 6 7 6 9 9 9 8 8 8 8 7 8 8 8 7 7 7 6 5 5 5 4 4 4 2 1 1 0 0 1 1 1 1 1 2 2 2 2 2 3 2 3 3 3 3
3 2 4 5 5 6 6 8 9 10 9 8 8 8 8 8 8 8 7 7 7 6 6 5 5 5 4 4 2 1 1 1 1 1 1 1 1 1 2 3 2 2 3 3 4 5 4 4 4
2 2 4 5 5 6 6 8 10 11 11 10 9 8 8 8 8 8 7 7 7 7 6 5 5 4 4 4 3 2 2 2 1 1 1 2 2 1 2 3 3 3 4 4 5 6 6 6 6
4 5 6 6 7 7 6 7 8 9 10 11 10 10 8 8 7 7 7 7 7 6 6 5 5 5 5 5 4 4 3 3 2 2 2 2 2 2 2 2 3 4 5 6 6 7 7 7 7
6 6 7 6 7 7 8 9 7 7 9 12 12 10 9 8 7 7 7 7 7 7 6 6 6 5 5 5 5 4 4 4 3 3 3 3 3 3 3 3 4 5 6 7 7 7 7 7 8
8 9 10 8 7 7 10 10 9 8 8 11 12 12 11 10 9 8 8 8 7 7 7 7 6 6 6 5 5 5 5 5 5 4 4 4 4 4 4 5 6 7 7 8 8 8 9 8 8
10 10 11 10 8 9 9 11 11 11 10 11 11 11 11 12 9 7 8 8 7 7 7 7 7 7 7 6 6 6 6 6 6 6 6 6 6 6 6 7 7 8 8 9 8 9 9 8 8
11 9 9 8 8 10 10 12 13 12 12 11 12 11 11 12 10 9 8 9 9 9 8 8 8 8 8 8 8 7 7 7 7 7 7 8 8 7 8 8 9 9 9 10 9 9 9 9 9
12 10 9 8 9 11 10 11 12 13 13 13 13 13 13 13 12 11 10 9 10 10 10 9 9 9 9 10 9 9 9 9 9 9 9 9 9 9 9 10 11 11 10 10 11 11 11 12 11
12 9 9 11 11 12 10 9 13 15 15 15 15 15 15 15 13 12 11 11 11 11 11 11 10 10 11 11 11 11 11 11 10 10 10 10 11 11 11 11 12 12 11 11 12 12 13 13 13
12 11 11 11 12 11 10 10 12 14 16 16 15 15 16 15 16 15 13 13 12 12 12 12 11 12 12 13 13 13 12 12 12 12 12 13 13 13 13 13 13 14 13 13 14 14 14 15 15
13 13 12 14 14 14 14 12 14 15 16 16 15 15 17 16 16 16 16 15 14 13 13 14 14 14 14 14 15 14 13 13 12 13 14 15 15 15 15 15 15 15 15 15 16 16 16 16 16
14 14 15 15 16 15 14 15 16 16 16 16 16 17 18 18 17 16 17 17 17 16 15 16 16 16 16 17 16 15 15 15 14 14 15 16 17 17 17 17 17 17 17 17 17 17 17 17 18
14 15 16 17 16 15 14 12 15 17 18 18 19 19 19 19 18 17 17 18 19 19 18 17 17 18 18 18 18 18 18 18 18 18 18 18 18 19 20 20 20 20 20 20 20 20 20 20 21
17 17 17 17 17 17 17 17 17 18 17 18 19 20 21 20 20 19 19 19 20 21 21 20 19 19 19 19 20 20 21 21 20 20 20 20 20 20 21 21 22 23 23 23 22 22 22 23 23
Wind_Direction
91 88 85 79 68 57 49 51 54 52 46 39 36 42 71 72 79 101 103 114 118 121 124 129 131 128 129 133 132 132 130 128 127 126 125 122 121 120 118 116 112 112 112 108 104 101 103 101 99
90 87 82 67 56 47 44 37 46 52 31 20 15 14 37 74 72 100 117 119 128 133 130 131 133 130 137 142 140 139 135 132 130 129 127 125 124 123 119 114 108 111 110 107 103 97 101 100 97
89 84 73 63 52 40 44 39 36 35 31 24 23 24 44 58 79 104 122 132 144 148 147 144 135 133 140 150 150 145 140 138 134 133 130 128 130 125 119 113 108 108 106 104 101 100 100 104 100
90 80 66 60 47 33 31 30 30 26 27 25 31 38 49 56 83 95 129 141 148 148 149 154 144 141 145 157 160 150 149 144 130 135 130 131 135 128 122 116 109 104 101 101 102 104 102 107 101
86 78 67 54 41 30 26 26 22 21 17 25 39 41 45 58 70 64 130 173 127 126 141 157 150 143 145 162 162 151 147 144 136 135 129 135 133 125 123 120 115 112 105 100 101 106 100 104 108
81 75 69 53 42 23 20 20 20 17 15 25 37 41 40 53 56 49 79 73 85 133 130 156 158 152 145 147 149 146 147 141 137 135 131 134 136 132 130 125 119 116 108 104 104 109 112 105 105
83 80 62 48 36 23 24 19 19 19 19 24 24 30 32 47 58 61 75 88 99 99 102 134 155 159 152 151 157 148 144 141 142 141 139 141 143 142 136 126 122 116 100 100 111 112 122 126 113
87 84 64 43 24 20 25 22 27 27 27 24 22 24 25 38 60 68 73 81 100 92 93 126 143 145 152 160 160 153 142 137 146 140 135 140 145 142 124 126 125 125 100 105 106 91 112 119 131
87 80 63 46 26 24 26 30 33 32 29 28 29 29 28 36 54 69 74 76 87 71 87 132 144 145 150 161 159 155 150 142 149 145 125 123 123 124 124 134 127 125 120 115 101 80 107 115 125
68 64 55 46 30 32 33 31 41 31 28 30 33 36 36 40 48 62 76 59 52 70 68 76 123 135 150 162 167 164 158 147 146 147 128 117 114 113 104 139 125 119 110 108 91 100 115 113 124
59 42 37 48 44 38 32 30 32 26 26 28 33 38 39 40 48 51 54 48 41 50 47 51 77 140 152 155 160 163 155 151 149 150 144 136 124 112 104 118 128 121 109 101 99 116 116 119 127
82 51 38 34 35 40 35 34 32 27 27 26 30 35 38 44 50 53 53 47 45 45 44 46 46 90 135 130 142 158 145 150 157 159 157 155 141 116 73 112 115 125 126 115 120 119 125 132 134
79 48 42 38 40 37 38 37 29 29 22 23 29 31 35 43 50 51 50 47 44 41 39 39 40 43 58 69 100 121 144 171 168 175 172 177 190 68 40 33 64 86 95 125 121 119 119 159 192
106 89 48 37 23 23 20 30 29 35 22 15 22 29 34 40 45 45 42 39 38 36 35 39 43 39 36 45 68 104 119 135 158 178 180 172 275 319 7 15 27 43 79 100 96 91 73 28 315
106 63 31 14 9 6 3 14 13 28 14 9 10 21 26 28 34 36 35 32 30 28 25 27 34 27 20 26 41 65 99 144 168 183 187 192 341 32 6 13 9 13 19 35 34 9 341 339 333
89 28 355 359 350 339 352 354 360 4 359 3 8 10 14 16 23 27 26 24 21 19 17 17 23 19 17 17 18 35 60 63 243 264 258 257 325 2 3 359 347 358 3 4 351 334 321 312 311
4 350 313 333 345 323 339 335 339 345 343 350 358 3 3 1 6 12 14 12 11 9 7 9 12 10 6 3 356 345 360 355 325 291 274 270 289 321 347 339 313 341 349 341 329 326 323 315 309
241 272 291 310 309 311 314 317 325 332 335 340 344 347 354 352 356 2 4 2 2 1 360 360 356 352 354 347 342 331 327 326 308 293 289 303 290 301 321 332 323 322 323 320 320 323 323 320 311
252 260 266 289 299 296 294 300 309 318 323 327 333 336 342 345 348 355 355 355 353 354 356 352 344 344 346 345 339 331 317 310 312 306 295 303 298 308 312 320 331 323 321 325 325 327 324 323 317
248 262 269 271 279 288 287 280 285 295 311 316 317 324 332 333 338 349 349 348 349 348 343 341 334 334 335 336 337 331 325 313 308 304 293 294 296 296 296 314 322 329 328 331 329 330 327 327 323
248 258 259 261 274 278 286 290 301 304 303 306 308 310 316 321 320 336 339 338 340 340 335 329 330 330 329 327 325 319 318 316 314 294 288 289 290 295 306 313 316 320 322 320 319 322 325 322 323
248 253 261 255 270 285 285 287 288 297 297 304 306 303 304 311 314 324 325 327 328 325 321 321 322 323 320 317 316 312 307 307 307 295 280 284 285 290 299 305 309 314 319 316 315 321 325 326 330
245 244 257 261 268 275 279 282 285 286 282 292 305 301 300 305 309 313 317 315 312 310 310 307 310 315 312 309 310 310 307 305 303 297 283 282 281 284 293 302 307 309 312 313 313 317 321 320 319
242 249 256 262 269 268 267 271 275 278 283 289 299 296 293 294 298 301 305 306 306 305 305 299 301 304 303 304 307 307 303 300 297 292 287 286 283 284 289 297 301 300 305 309 312 311 309 312 310
250 252 257 262 268 272 269 267 272 275 278 287 288 289 291 290 288 292 297 298 300 301 303 302 298 299 299 301 303 303 302 297 291 287 284 284 284 282 284 292 297 299 300 303 305 305 303 303 304
244 243 249 256 268 277 277 255 266 275 278 279 277 279 279 280 283 289 290 290 294 298 301 305 302 300 298 297 298 298 300 293 289 284 281 281 283 284 283 287 292 296 296 298 301 303 303 300 297
238 238 246 256 261 267 269 262 258 273 281 283 282 280 279 277 282 286 287 287 287 291 298 302 302 300 297 295 292 293 296 292 289 289 284 283 283 282 282 284 287 290 292 294 296 298 300 300 297
242 239 239 244 251 257 259 265 262 265 277 280 280 281 280 279 279 278 282 284 286 290 294 299 300 298 296 293 292 290 290 291 290 291 291 289 288 286 285 284 284 284 288 291 293 297 296 298 299
247 246 247 243 241 251 260 263 270 272 272 278 283 284 283 283 279 277 281 285 287 288 290 293 295 297 296 291 289 287 287 288 288 289 290 289 290 290 287 286 285 285 286 287 289 292 293 294 296
245 242 244 251 251 248 253 262 270 271 269 273 276 277 281 281 280 279 281 283 286 287 287 288 288 292 293 293 290 287 285 286 286 286 287 287 287 288 287 287 287 286 286 287 288 290 290 291 293